Key statistics
Satellite OBJECT K at a glance.
Uptime
1199
Days in orbit
Revolutions
≈ 16.4
Per day
Orbit
SSO
Sun Synchronous Orbit
Inclination
97.4
Latest
Satellite identification and parameters
Extended collection of information and parameters for OBJECT K.
Object identification
Identified? True
Debris? False
Object name: OBJECT K
International designator: 2022-019K
Object number (NORAD): 51833
Object ID (CCSDS): 51833
Country: PEOPLES REPUBLIC OF CHINA (PRC)
Current information (Y/N): Y
RCS size: MEDIUM
Orbital parameters
Decay date: June 10, 2025
Period: 87.807 minutes
Inclination: 97.3798 deg
SMA: 6544.055 km
Apoapsis: 174.641 km
Periapsis: 157.2 km
RAAN: 251.552 deg
Eccentricy: 0.0013326
Argument of periapsis: 262.1919 deg
Mean anomaly: 97.7868 deg
Mean motion: 16.39956419 rev/day
Mean motion (dot): 0.12030601 rev/day2
B* drag term: 0.00085725 1/REarth
Two-line elements (TLE)
Creation date: June 4, 2025, 6:36 a.m.
Reference frame: TEME
Reference center: EARTH
Epoch: June 4, 2025, 5:44 a.m. UTC
TLE line 0: 0 OBJECT K
TLE line 1: 1 51833U 22019K 25155.23921909 .12030601 25394-5 85725-3 0 9998
TLE line 2: 2 51833 97.3798 251.5520 0013326 262.1919 97.7868 16.39956419182357
Live tracking on map
Satellite OBJECT K has decayed and is no longer in orbit. No tracking available.
In-orbit conjunctions
Satellite OBJECT K has decayed and is no longer in orbit. No conjunctions available.
Associated space launch
Carried 22 satellites to sun-synchronous orbit on a share-ride mission, including the Hainan-1 satellites.
OBJECT K was lifted into orbit during the mission ‘Long March 8 (Core Only) | Hainan-1 to 4 & others’, on board a Long March 8 (Core Only) space rocket.
The launch took place on Feb. 27, 2022, 3:06 a.m. from 201.
For more information about the launch, click the button.
Long March 8 (Core Only) | Hainan-1 to 4 & others
Agency: N/A
Status: Launch Successful
Launch date: Feb. 27, 2022, 3:06 a.m. UTC
Rocket: Long March 8 (Core Only)
Launch pad: 201
Location: Wenchang Space Launch Site, People's Republic of China
...
Latest news about this satellite
China launches new variant of Long March 8 rocket
Two recent launches from China set a new record for the largest number of satellites ever deployed by a Chinese rocket, and added a new radar imaging capability to the country’s remote sensing fleet.
China launches national record 22 satellites on Long March 8 commercial rideshare
China’s second Long March 8 rocket launched late Saturday carrying a domestic record 22 satellites for a range of commercial Chinese space companies.
Newsletter sign-up
Weekly statistics, charts and insights to help you stay on top of the space industry.
